STARLINK-35600

Last updated on Tue Dec 16 2025 00:02:05 GMT+0000 (Coordinated Universal Time)

1 66510U 25263AB 25349.19382129 -.00292969 00000+0 -56123-2 0 9991 2 66510 43.0007 110.7125 0002746 259.6453 100.4097 15.48294226 5946
UTC large
Height (km)
Speed (km/s)
/
Latitude / Longitude
Inclination (degrees)
Orbital Period (minutes)
Azimuth
Elevation
Range (km)
Doppler Factor

Next 0 passes for location: London (51.5072 / 0.1276)

Sorry there are no passes over London.